NTHWK29 KADW-KDAA

Flight info

Callsign NTHWK29
Flight time 0h 7m
Altitude 2500
Route VFR
Aircraft H60/L-V/N

Departure

Time 2026-05-09 02:25
Airport Joint Base Andrews (KADW)

Arrival

Time 2026-05-09 02:32
Airport Davison Army Air Field (KDAA)
Time Latitude Longitude Altitude Speed Heading
2026-05-09 02:04 38.80706 -76.87655 265 ft 0 kts 355°
2026-05-09 02:24 38.80706 -76.87654 266 ft 1 kts 358°
2026-05-09 02:24 38.80814 -76.87691 371 ft 43 kts 304°
2026-05-09 02:24 38.80798 -76.88238 518 ft 89 kts 255°
2026-05-09 02:25 38.80633 -76.89146 680 ft 103 kts 250°
2026-05-09 02:25 38.80493 -76.90006 959 ft 107 kts 249°
2026-05-09 02:25 38.80315 -76.91013 992 ft 121 kts 245°
2026-05-09 02:25 38.79973 -76.92045 1006 ft 129 kts 240°
2026-05-09 02:26 38.79518 -76.93050 1027 ft 134 kts 230°
2026-05-09 02:26 38.78884 -76.93959 1011 ft 140 kts 219°
2026-05-09 02:26 38.78172 -76.94855 1006 ft 143 kts 220°
2026-05-09 02:26 38.77455 -76.95753 1004 ft 142 kts 220°
2026-05-09 02:27 38.76761 -76.96627 1012 ft 141 kts 220°
2026-05-09 02:27 38.76113 -76.97581 1013 ft 140 kts 224°
2026-05-09 02:27 38.75480 -76.98545 987 ft 140 kts 224°
2026-05-09 02:27 38.74878 -76.99479 1000 ft 134 kts 224°
2026-05-09 02:28 38.74284 -77.00397 1007 ft 131 kts 225°
2026-05-09 02:28 38.73705 -77.01296 1011 ft 131 kts 225°
2026-05-09 02:28 38.73125 -77.02191 1012 ft 130 kts 225°
2026-05-09 02:28 38.72545 -77.03088 1015 ft 130 kts 225°
2026-05-09 02:29 38.71972 -77.03972 1013 ft 130 kts 224°
2026-05-09 02:29 38.71392 -77.04874 1015 ft 130 kts 225°
2026-05-09 02:29 38.70868 -77.05808 988 ft 133 kts 237°
2026-05-09 02:29 38.70497 -77.06898 1012 ft 132 kts 240°
2026-05-09 02:30 38.70217 -77.08021 1000 ft 133 kts 250°
2026-05-09 02:30 38.70044 -77.09171 993 ft 136 kts 258°
2026-05-09 02:30 38.70003 -77.10371 1066 ft 129 kts 259°
2026-05-09 02:30 38.70003 -77.11337 1258 ft 98 kts 276°
2026-05-09 02:31 38.70238 -77.12291 953 ft 121 kts 278°
2026-05-09 02:31 38.70378 -77.13341 884 ft 118 kts 266°
2026-05-09 02:31 38.70418 -77.14371 738 ft 119 kts 264°
2026-05-09 02:31 38.70424 -77.15385 688 ft 99 kts 263°
2026-05-09 02:32 38.70525 -77.16180 606 ft 84 kts 278°
2026-05-09 02:32 38.70758 -77.16888 356 ft 90 kts 287°
2026-05-09 02:32 38.70989 -77.17484 246 ft 50 kts 296°
2026-05-09 02:32 38.71140 -77.17708 76 ft 22 kts 292°
2026-05-09 02:33 38.71173 -77.17767 65 ft 3 kts 309°
2026-05-09 02:33 38.71194 -77.17796 65 ft 8 kts 313°
2026-05-09 02:33 38.71242 -77.17862 63 ft 11 kts 313°
2026-05-09 02:33 38.71294 -77.17931 62 ft 10 kts 313°
2026-05-09 02:34 38.71308 -77.17994 62 ft 4 kts 283°
2026-05-09 02:34 38.71308 -77.17997 62 ft 0 kts 299°
2026-05-09 02:34 38.71313 -77.18004 62 ft 0 kts 315°